Weather History for KFBL - June, 2014

Change the Weather History Date:

Tuesday, June 3, 2014

  Actual Average Record
Temperature  
Mean Temperature 66 °F -  
Max Temperature 75 °F 76 °F 91 °F (2011)
Min Temperature 57 °F 49 °F 37 °F (1969)
Cooling Degree Days 1    
Growing Degree Days 16 (Base 50)    
Moisture  
Dew Point 52 °F    
Average Humidity 59    
Maximum Humidity 82    
Minimum Humidity 38    
Precipitation  
Precipitation 0.00 in - - ()
Sea Level Pressure  
Sea Level Pressure 29.93 in    
Wind  
Wind Speed 7 mph (WSW)    
Max Wind Speed 14 mph    
Max Gust Speed 21 mph    
Visibility 10 miles    
Events      
Averages and records for this station are not official NWS values.
T = Trace of Precipitation, MM = Missing Value Source: NWS Daily Summary

Daily Weather History Graph

Daily Weather History Graph

Search for Another Location

Airport or City:

Trip Planner

Search our weather history database for the weather conditions in past years. The results will help you decide how hot, cold, wet, or windy it might be!

Date:

Astronomy

Jun. 03, 2014 Rise Set
Actual Time 5:31 AM CDT 8:52 PM CDT
Civil Twilight 4:55 AM CDT 9:27 PM CDT
Nautical Twilight 4:08 AM CDT 10:14 PM CDT
Astronomical Twilight 3:10 AM CDT 11:13 PM CDT
Moon 11:03 AM CDT (6/3) 12:12 AM CDT (6/3)
Length of Visible Light 16h 32m
Length of Day
15h 20m
Waxing Crescent, 30% of the Moon is Illuminated
Jun 3
Waxing Crescent
Jun 5
First Quarter
Jun 12
Full
Jun 19
Last Quarter
Jun 27
New

Hourly Weather History & Observations

Time (CDT) Temp. Dew Point Humidity Pressure Visibility Wind Dir Wind Speed Gust Speed Precip Events Conditions
12:13 AM 64.4 °F 51.8 °F 64% 29.89 in 10.0 mi West 13.8 mph 20.7 mph N/A   Clear
12:34 AM 62.6 °F 53.6 °F 72% 29.89 in 10.0 mi West 11.5 mph 19.6 mph N/A   Clear
12:54 AM 62.6 °F 51.8 °F 68% 29.90 in 10.0 mi West 12.7 mph - N/A   Clear
1:14 AM 62.6 °F 51.8 °F 68% 29.90 in 10.0 mi West 10.4 mph - N/A   Clear
1:34 AM 62.6 °F 51.8 °F 68% 29.90 in 10.0 mi West 10.4 mph - N/A   Clear
1:54 AM 62.6 °F 51.8 °F 68% 29.91 in 10.0 mi West 10.4 mph - N/A   Clear
2:14 AM 60.8 °F 51.8 °F 72% 29.91 in 10.0 mi West 9.2 mph - N/A   Clear
2:34 AM 60.8 °F 51.8 °F 72% 29.92 in 10.0 mi West 9.2 mph - N/A   Clear
2:53 AM 60.8 °F 51.8 °F 72% 29.92 in 10.0 mi West 9.2 mph - N/A   Clear
3:14 AM 60.8 °F 51.8 °F 72% 29.92 in 10.0 mi West 10.4 mph - N/A   Clear
3:34 AM 60.8 °F 51.8 °F 72% 29.92 in 10.0 mi West 8.1 mph 16.1 mph N/A   Clear
3:54 AM 60.8 °F 51.8 °F 72% 29.92 in 10.0 mi West 8.1 mph - N/A   Clear
4:14 AM 59.0 °F 51.8 °F 77% 29.93 in 10.0 mi West 8.1 mph - N/A   Clear
4:34 AM 59.0 °F 51.8 °F 77% 29.93 in 10.0 mi West 8.1 mph - N/A   Clear
4:54 AM 59.0 °F 51.8 °F 77% 29.94 in 10.0 mi West 6.9 mph - N/A   Clear
5:14 AM 57.2 °F 51.8 °F 82% 29.94 in 10.0 mi West 6.9 mph - N/A   Clear
5:34 AM 57.2 °F 51.8 °F 82% 29.95 in 10.0 mi West 3.5 mph - N/A   Clear
5:54 AM 57.2 °F 50.0 °F 77% 29.96 in 10.0 mi West 5.8 mph - N/A   Clear
6:14 AM 57.2 °F 51.8 °F 82% 29.96 in 10.0 mi SW 4.6 mph - N/A   Clear
6:33 AM 59.0 °F 51.8 °F 77% 29.96 in 10.0 mi WSW 3.5 mph - N/A   Clear
6:54 AM 60.8 °F 51.8 °F 72% 29.97 in 10.0 mi SW 3.5 mph - N/A   Clear
7:14 AM 60.8 °F 51.8 °F 72% 29.98 in 10.0 mi SW 4.6 mph - N/A   Clear
7:33 AM 62.6 °F 51.8 °F 68% 29.98 in 10.0 mi WSW 5.8 mph - N/A   Clear
7:54 AM 62.6 °F 51.8 °F 68% 29.98 in 10.0 mi WSW 5.8 mph - N/A   Clear
8:14 AM 64.4 °F 51.8 °F 64% 29.99 in 10.0 mi SW 6.9 mph - N/A   Clear
8:34 AM 64.4 °F 51.8 °F 64% 30.00 in 10.0 mi WSW 4.6 mph - N/A   Clear
8:54 AM 66.2 °F 51.8 °F 60% 30.00 in 10.0 mi WSW 6.9 mph - N/A   Clear
9:14 AM 66.2 °F 50.0 °F 56% 30.00 in 10.0 mi WSW 6.9 mph - N/A   Clear
9:34 AM 68.0 °F 48.2 °F 49% 30.01 in 10.0 mi West 6.9 mph - N/A   Clear
9:54 AM 69.8 °F 50.0 °F 49% 30.01 in 10.0 mi WSW 5.8 mph - N/A   Clear
10:13 AM 69.8 °F 50.0 °F 49% 30.02 in 10.0 mi WSW 8.1 mph - N/A   Clear
10:34 AM 69.8 °F 48.2 °F 46% 30.01 in 10.0 mi West 10.4 mph - N/A   Clear
10:54 AM 71.6 °F 48.2 °F 43% 30.01 in 10.0 mi West 8.1 mph - N/A   Clear
11:13 AM 71.6 °F 48.2 °F 43% 30.01 in 10.0 mi SW 8.1 mph - N/A   Clear
11:34 AM 71.6 °F 48.2 °F 43% 29.99 in 10.0 mi West 6.9 mph - N/A   Clear
11:54 AM 71.6 °F 46.4 °F 41% 29.99 in 10.0 mi NW 4.6 mph - N/A   Clear
12:13 PM 71.6 °F 46.4 °F 41% 29.98 in 10.0 mi NW 3.5 mph - N/A   Clear
12:34 PM 73.4 °F 48.2 °F 41% 29.98 in 10.0 mi WSW 5.8 mph - N/A   Clear
12:54 PM 73.4 °F 48.2 °F 41% 29.97 in 10.0 mi West 4.6 mph - N/A   Clear
1:14 PM 73.4 °F 50.0 °F 44% 29.96 in 10.0 mi WSW 4.6 mph - N/A   Clear
1:34 PM 73.4 °F 48.2 °F 41% 29.95 in 10.0 mi Calm Calm - N/A   Clear
1:54 PM 73.4 °F 50.0 °F 44% 29.96 in 10.0 mi SW 4.6 mph - N/A   Clear
2:14 PM 75.2 °F 50.0 °F 41% 29.96 in 10.0 mi WSW 6.9 mph - N/A   Clear
2:54 PM 75.2 °F 48.2 °F 38% 29.94 in 10.0 mi WSW 6.9 mph - N/A   Clear
3:14 PM 75.2 °F 50.0 °F 41% 29.93 in 10.0 mi WSW 5.8 mph - N/A   Clear
3:34 PM 75.2 °F 48.2 °F 38% 29.93 in 10.0 mi WSW 3.5 mph - N/A   Scattered Clouds
3:54 PM 75.2 °F 48.2 °F 38% 29.92 in 10.0 mi WNW 4.6 mph - N/A   Clear
4:14 PM 75.2 °F 50.0 °F 41% 29.92 in 10.0 mi WNW 3.5 mph - N/A   Clear
4:54 PM 73.4 °F 51.8 °F 47% 29.94 in 10.0 mi SW 4.6 mph - N/A   Scattered Clouds
5:14 PM 73.4 °F 51.8 °F 47% 29.93 in 10.0 mi Calm Calm - N/A   Clear
5:34 PM 73.4 °F 53.6 °F 50% 29.92 in 10.0 mi Calm Calm - N/A   Clear
5:54 PM 73.4 °F 53.6 °F 50% 29.90 in 10.0 mi Calm Calm - N/A   Clear
6:14 PM 73.4 °F 53.6 °F 50% 29.89 in 10.0 mi South 3.5 mph - N/A   Clear
6:34 PM 73.4 °F 53.6 °F 50% 29.87 in 10.0 mi Calm Calm - N/A   Clear
6:54 PM 73.4 °F 51.8 °F 47% 29.84 in 10.0 mi Calm Calm - N/A   Clear
7:14 PM 73.4 °F 50.0 °F 44% 29.86 in 10.0 mi Calm Calm - N/A   Clear
7:34 PM 73.4 °F 53.6 °F 50% 29.87 in 10.0 mi Calm Calm - N/A   Clear
7:54 PM 71.6 °F 55.4 °F 57% 29.86 in 10.0 mi Calm Calm - N/A   Clear
8:14 PM 71.6 °F 53.6 °F 53% 29.86 in 10.0 mi East 3.5 mph - N/A   Clear
8:34 PM 71.6 °F 53.6 °F 53% 29.85 in 10.0 mi East 3.5 mph - N/A   Clear
8:54 PM 71.6 °F 53.6 °F 53% 29.86 in 10.0 mi Calm Calm - N/A   Clear
9:14 PM 69.8 °F 55.4 °F 60% 29.87 in 10.0 mi Calm Calm - N/A   Clear
9:34 PM 69.8 °F 55.4 °F 60% 29.87 in 10.0 mi Calm Calm - N/A   Clear
10:14 PM 68.0 °F 55.4 °F 64% 29.88 in 10.0 mi Calm Calm - N/A   Clear
10:34 PM 66.2 °F 57.2 °F 73% 29.89 in 10.0 mi Calm Calm - N/A   Clear
10:54 PM 66.2 °F 57.2 °F 73% 29.89 in 10.0 mi Calm Calm - N/A   Scattered Clouds
11:14 PM 66.2 °F 57.2 °F 73% 29.87 in 10.0 mi Calm Calm - N/A   Mostly Cloudy
11:34 PM 64.4 °F 57.2 °F 77% 29.86 in 10.0 mi Calm Calm - N/A   Mostly Cloudy